Regional Weather Roundup
Issued by NWS Northern Indiana

Home | Current Version | Previous Version | Text Only | Print | Product List | Glossary Off
Versions: 1 2 3 4 5 6 7 8 9 10 11 12 13 14 15 16 17 18 19 20 21 22 23 24 25 26 27 28 29 30 31 32 33 34 35 36 37 38 39 40 41 42 43 44 45 46 47 48 49 50

000
ASUS43 KIWX 260710
RWRIWX

KIWX WEATHER ROUNDUP
NATIONAL WEATHER SERVICE NORTHERN INDIANA
300 AM EDT MON JUN 26 2017

NOTE: "FAIR" INDICATES FEW OR NO CLOUDS BELOW 12,000 FEET WITH NO
SIGNIFICANT WEATHER AND/OR OBSTRUCTIONS TO VISIBILITY.

* THESE STATIONS ARE NOT UNDER NWS QUALITY CONTROL. THEY ALSO MAY NOT
  REPORT WEATHER SUCH AS PRECIPITATION OR FOG.

INZ001>027-260800-
NORTHERN INDIANA

CITY           SKY/WX    TMP DP  RH WIND       PRES   REMARKS
GARY*          PTCLDY    57  49  75 S3        30.11S
VALPARAISO     CLEAR     56  50  80 W5        30.11S
MICHIGAN CITY* CLOUDY    61  50  67 NW9       30.09F
LAPORTE*       PTCLDY    57  51  81 W3        30.10F
KNOX*          PTCLDY    55  39  54 W9        30.10S
SOUTH BEND     CLOUDY    57  53  86 W7        30.10S
GOSHEN         CLEAR     55  51  86 SW6       30.08S
MONTICELLO*    CLEAR     56  49  80 W3        30.12S
LOGANSPORT*    CLEAR     52  46  82 W6        30.13S
ROCHESTER*     CLEAR     59  48  67 W5        30.10F
WARSAW*        CLEAR     54  46  76 W6        30.09S
AUBURN*        CLEAR     55  48  76 W3        30.08S
FORT WAYNE     PTCLDY    58  49  72 W10       30.09S
HUNTINGTON*    PTCLDY    55  49  81 W7        30.10S
PERU/GRISSOM   CLEAR     55  51  84 W7        30.10F
MARION*        CLEAR     55  48  76 W7        30.12S

$$
INZ028>050-260800-
CENTRAL INDIANA

CITY           SKY/WX    TMP DP  RH WIND       PRES   REMARKS
LAFAYETTE      CLEAR     54  52  93 W3        30.14S
KOKOMO*        CLEAR     56  50  80 W8        30.13S
MUNCIE*        CLEAR     58  49  72 W7        30.12S
INDIANAPOLIS   PTCLDY    57  49  74 W7        30.14F

$$
MIZ043>046-050>051-056>058-064>065-071>073-077>080-260800-
SOUTHWEST LOWER MICHIGAN

CITY           SKY/WX    TMP DP  RH WIND       PRES   REMARKS
BATTLE CREEK   CLEAR     55  51  86 W9        30.05S
BENTON HARBOR  CLOUDY    61  52  72 NW9       30.07S
COLDWATER*     CLOUDY    57  50  77 SW5       30.06S
HILLSDALE*     MOCLDY    54  46  76 SW3       30.05S
HOLLAND        CLOUDY    60  53  77 NW10      30.05S
GRAND RAPIDS   PTCLDY    57  53  86 W9        30.02F
KALAMAZOO      PTCLDY    55  49  80 SW7       30.06S
STURGIS*       MOCLDY    58  51  79 W6        30.06S
THREE RIVERS*  FAIR      57  50  77 W7        30.07S

$$
OHZ001>008-015>018-024>025-260800-
NORTHWEST OHIO

CITY           SKY/WX    TMP DP  RH WIND       PRES   REMARKS
WAUSEON*       CLOUDY    59  50  72 W8        30.05S
DEFIANCE       CLOUDY    59  49  69 CALM      30.06F
FINDLAY        CLEAR     59  46  62 SW8       30.05F
TOLEDO EXPRESS CLOUDY    58  51  78 W6        30.04F
TOLEDO METCALF PTCLDY    58  51  78 SW3       30.05F
LIMA           CLEAR     58  49  72 W8        30.08F

$$
AND FOR LAKE MICHIGAN COASTAL AND OPEN LAKE BUOY OBSERVATIONS

STATION/POSITION TEMP    WIND        PRES    VSBY  WAVE
                 AIR SEA DIR/SP/G                  HT/PER
                 (F)     (DEG/KT/KT) (MB)    (MI)  (FT/S)
CALUMET HARBOR           230/  2/  3 1018.6F
MICHIGAN CITY     62     300/ 20/ 21   N/A
BURNS HARBOR      63     290/ 11/ 14 1019.3S
SOUTH LAKE BUOY   60 61  320/ 17/ 21 1017.5F         3/ 5
4 MI NW BRIDGMAN  63 69  310/ 19/ 25 1018.2          6/ 5
MICHIGAN CITY     63 66  310/ 16/ 21   N/A           6/ 4

$$
&&




USA.gov is the U.S. government's official web portal to all federal, state and local government web resources and services.